Content
SEND FEEDBACK

Daily
Averages
Monthly
Summary
United States of America

GRAFTON, ILLINOIS


Home > North America > United States > Illinois
Elevation: 400 feet     Latitude: 38 58N     Longitude: 090 26W

WEATHER
 
SELECT A DAY
Number of Records: 166,908;   Date Range: 10/8/98 - 9/18/14
 
SHARE

PRINT THIS DATA

[ ← Previous Day ]
WEATHER ALMANAC - JANUARY 3, 2013
[ Next Day → ]
[ °C ]   °F
Weather ElementAverageHighLow
Temperature29.2 °F39.9 °F (1:54 pm)16 °F (1:54 am)
Dewpoint21.5 °F26.1 °F (8:54 pm)12.9 °F (1:54 am)
Humidity73.9 %88 % (1:54 am)55 % (1:54 pm)
Barometer30.34 in30.41 in (9:54 pm)30.24 in (1:54 am)
Wind Speed7 mph12.7 mph (1:54 pm)
Weather ElementAverage
Visibility8.7 mi
Wind DirectionWSW (247 °)

Weather ElementTotal
Precipitation---
Heating Degree Days37.1 (Base 65)
Averaged from 23 records on January 3, 2013
WEATHER CONDITIONS BREAKOUT
WIND DIRECTION BREAKOUT
WEATHER BY HOUR - JANUARY 3, 2013
[ °C ]   °F
Local TimeTemperatureDewpointHumidityBarometerVisibilityWind DirectionWind SpeedGust SpeedPrecipitationEventsConditions
1:54 AM16.0 °F12.9 °F88 %30.24 in6.0 miCalmClear
2:54 AM17.1 °F12.9 °F84 %30.26 in6.0 miCalmMostly Cloudy
3:54 AM19.9 °F15.1 °F81 %30.26 in10.0 miWest (280°)6.9 mphClear
4:54 AM24.1 °F18.0 °F77 %30.27 in9.0 miWNW (290°)9.2 mphClear
5:54 AM21.0 °F17.1 °F85 %30.28 in8.0 miWSW (240°)4.6 mphClear
6:54 AM24.1 °F19.0 °F81 %30.30 in8.0 miWest (270°)5.8 mphClear
7:54 AM21.9 °F18.0 °F85 %30.32 in6.0 miSW (230°)3.5 mphClear
8:54 AM26.1 °F21.0 °F81 %30.35 in6.0 miWest (270°)10.4 mphHaze
9:54 AM28.9 °F21.9 °F75 %30.38 in6.0 miWest (260°)9.2 mphHaze
10:54 AM30.9 °F24.1 °F76 %30.38 in7.0 miWest (260°)9.2 mphClear
11:54 AM35.1 °F25.0 °F67 %30.35 in9.0 miWest (270°)9.2 mphClear
12:54 PM37.0 °F25.0 °F62 %30.33 in10.0 miWest (260°)10.4 mphClear
1:54 PM39.9 °F25.0 °F55 %30.32 in10.0 miWNW (290°)12.7 mphPartly Cloudy
2:54 PM37.9 °F24.1 °F57 %30.34 in10.0 miWNW (290°)10.4 mphOvercast
3:54 PM37.0 °F23.0 °F57 %30.35 in10.0 miWest (280°)10.4 mphScattered Clouds
4:54 PM36.0 °F23.0 °F59 %30.36 in10.0 miWest (270°)8.1 mphClear
5:54 PM32.0 °F24.1 °F73 %30.38 in10.0 miWNW (300°)6.9 mphOvercast
6:54 PM34.0 °F24.1 °F67 %30.39 in10.0 miWNW (290°)6.9 mphOvercast
7:54 PM34.0 °F25.0 °F70 %30.40 in10.0 miWest (280°)5.8 mphOvercast
8:54 PM33.1 °F26.1 °F75 %30.40 in10.0 miWest (280°)4.6 mphOvercast
9:54 PM30.9 °F25.0 °F79 %30.41 in10.0 miWest (260°)4.6 mphMostly Cloudy
10:54 PM27.0 °F23.0 °F85 %30.41 in10.0 miWest (260°)5.8 mphClear
11:54 PM28.0 °F23.0 °F81 %30.40 in10.0 miWSW (250°)6.9 mphClear
Hourly data recorded from KSET, located miles away from Grafton, Illinois







STORIES FROM OUR PARTNERS